QPF
0.00 0.00 0.00 0.00 0.00 0.00 0.00 0.00 0.01 0.01 0.01 0.01 0.01 0.01 0.01 0.01 0.01 0.01 0.02 0.02 0.02 0.02 0.02 0.03 0.03 0.05 0.06 0.07 0.07 0.07 0.06 0.06 0.05 0.04 0.05 0.05 0.05 0.03 0.02 0.02 0.02 0.03 0.02 0.03
0.01 0.01 0.00 0.00 0.00 0.00 0.00 0.00 0.00 0.01 0.01 0.01 0.01 0.01 0.02 0.01 0.01 0.01 0.01 0.02 0.03 0.04 0.03 0.02 0.02 0.02 0.03 0.03 0.04 0.06 0.08 0.06 0.04 0.05 0.05 0.05 0.03 0.03 0.02 0.01 0.02 0.02 0.03 0.02
0.01 0.02 0.01 0.01 0.01 0.01 0.00 0.00 0.00 0.00 0.00 0.01 0.01 0.01 0.01 0.02 0.03 0.03 0.02 0.02 0.03 0.05 0.04 0.03 0.02 0.02 0.03 0.04 0.04 0.05 0.07 0.07 0.06 0.05 0.03 0.03 0.02 0.02 0.01 0.01 0.01 0.02 0.02 0.02
0.01 0.01 0.01 0.03 0.03 0.01 0.00 0.01 0.00 0.00 0.00 0.01 0.01 0.01 0.02 0.02 0.02 0.02 0.02 0.02 0.03 0.05 0.07 0.05 0.04 0.04 0.04 0.05 0.05 0.05 0.07 0.08 0.08 0.07 0.05 0.04 0.03 0.02 0.02 0.02 0.02 0.02 0.02 0.03
0.01 0.01 0.01 0.02 0.02 0.01 0.01 0.01 0.01 0.00 0.01 0.01 0.01 0.01 0.02 0.01 0.02 0.02 0.02 0.02 0.02 0.04 0.06 0.05 0.04 0.05 0.06 0.05 0.04 0.05 0.07 0.09 0.09 0.11 0.09 0.05 0.04 0.03 0.03 0.02 0.02 0.02 0.02 0.03
0.01 0.01 0.01 0.01 0.01 0.01 0.01 0.02 0.01 0.01 0.01 0.01 0.01 0.02 0.02 0.01 0.02 0.02 0.02 0.02 0.01 0.02 0.03 0.03 0.04 0.05 0.05 0.05 0.04 0.04 0.06 0.08 0.10 0.11 0.10 0.08 0.05 0.04 0.03 0.03 0.04 0.04 0.04 0.03
0.01 0.02 0.01 0.01 0.01 0.01 0.02 0.02 0.01 0.01 0.01 0.01 0.01 0.01 0.01 0.02 0.02 0.03 0.02 0.02 0.01 0.01 0.01 0.02 0.03 0.04 0.05 0.05 0.04 0.04 0.05 0.09 0.10 0.12 0.13 0.11 0.09 0.08 0.06 0.04 0.04 0.04 0.03 0.03
0.01 0.01 0.02 0.01 0.01 0.02 0.02 0.02 0.02 0.01 0.01 0.01 0.01 0.01 0.01 0.01 0.02 0.04 0.03 0.03 0.03 0.02 0.02 0.03 0.03 0.03 0.03 0.03 0.03 0.03 0.03 0.05 0.06 0.08 0.10 0.13 0.12 0.12 0.11 0.07 0.04 0.03 0.03 0.03
0.01 0.01 0.01 0.01 0.01 0.02 0.02 0.02 0.01 0.01 0.01 0.01 0.01 0.01 0.01 0.01 0.01 0.03 0.04 0.04 0.04 0.04 0.06 0.05 0.04 0.03 0.02 0.02 0.02 0.01 0.02 0.02 0.03 0.03 0.04 0.08 0.14 0.13 0.12 0.09 0.06 0.05 0.04 0.04
0.01 0.01 0.01 0.01 0.01 0.01 0.01 0.01 0.01 0.01 0.01 0.01 0.01 0.01 0.01 0.01 0.01 0.02 0.03 0.04 0.04 0.04 0.06 0.09 0.07 0.05 0.04 0.02 0.01 0.01 0.02 0.02 0.02 0.02 0.02 0.03 0.06 0.10 0.12 0.12 0.09 0.05 0.04 0.03
0.02 0.02 0.01 0.01 0.01 0.01 0.01 0.01 0.01 0.01 0.02 0.02 0.02 0.03 0.03 0.03 0.03 0.03 0.02 0.03 0.04 0.04 0.05 0.07 0.09 0.08 0.07 0.05 0.03 0.02 0.02 0.02 0.02 0.03 0.04 0.04 0.03 0.04 0.06 0.09 0.09 0.06 0.04 0.02
0.04 0.04 0.03 0.02 0.02 0.01 0.01 0.01 0.01 0.01 0.02 0.02 0.03 0.06 0.04 0.03 0.03 0.03 0.03 0.04 0.05 0.06 0.05 0.05 0.08 0.09 0.07 0.05 0.04 0.05 0.03 0.01 0.01 0.02 0.04 0.04 0.03 0.03 0.03 0.04 0.04 0.04 0.03 0.02
0.04 0.04 0.04 0.03 0.03 0.02 0.02 0.01 0.01 0.01 0.01 0.01 0.01 0.02 0.04 0.05 0.04 0.04 0.04 0.04 0.04 0.05 0.06 0.03 0.04 0.07 0.08 0.06 0.06 0.05 0.05 0.03 0.02 0.02 0.02 0.02 0.02 0.02 0.03 0.03 0.02 0.02 0.02 0.01
0.03 0.03 0.03 0.02 0.02 0.02 0.02 0.01 0.01 0.02 0.02 0.02 0.02 0.02 0.03 0.03 0.03 0.04 0.04 0.04 0.04 0.04 0.05 0.04 0.03 0.04 0.05 0.05 0.06 0.06 0.05 0.05 0.04 0.03 0.02 0.01 0.01 0.01 0.01 0.02 0.02 0.02 0.01 0.02
0.02 0.02 0.02 0.02 0.02 0.01 0.01 0.01 0.02 0.02 0.02 0.02 0.03 0.03 0.04 0.04 0.04 0.03 0.03 0.03 0.03 0.03 0.05 0.04 0.03 0.03 0.03 0.04 0.05 0.05 0.05 0.04 0.03 0.03 0.03 0.02 0.02 0.02 0.02 0.01 0.02 0.02 0.01 0.01
0.02 0.02 0.02 0.01 0.01 0.01 0.02 0.02 0.03 0.03 0.03 0.03 0.03 0.03 0.04 0.04 0.03 0.03 0.03 0.03 0.04 0.04 0.05 0.04 0.02 0.02 0.02 0.02 0.05 0.04 0.04 0.05 0.04 0.03 0.02 0.02 0.01 0.01 0.02 0.02 0.02 0.02 0.02 0.02
0.02 0.02 0.01 0.01 0.01 0.01 0.02 0.02 0.03 0.04 0.04 0.04 0.04 0.03 0.03 0.03 0.03 0.02 0.02 0.03 0.03 0.03 0.03 0.04 0.03 0.02 0.02 0.02 0.03 0.05 0.05 0.04 0.03 0.03 0.02 0.02 0.02 0.02 0.02 0.03 0.02 0.02 0.02 0.02
0.03 0.02 0.01 0.01 0.01 0.01 0.02 0.01 0.02 0.04 0.05 0.05 0.04 0.03 0.02 0.02 0.02 0.01 0.01 0.02 0.02 0.03 0.03 0.03 0.03 0.03 0.02 0.01 0.02 0.03 0.05 0.04 0.03 0.03 0.03 0.03 0.02 0.03 0.03 0.04 0.04 0.03 0.03 0.04
0.05 0.05 0.04 0.03 0.02 0.01 0.01 0.02 0.01 0.04 0.07 0.07 0.04 0.03 0.03 0.02 0.02 0.01 0.01 0.01 0.01 0.03 0.05 0.03 0.03 0.03 0.01 0.01 0.01 0.02 0.03 0.03 0.02 0.02 0.03 0.03 0.03 0.03 0.02 0.02 0.02 0.03 0.04 0.05
0.06 0.06 0.05 0.05 0.04 0.02 0.02 0.02 0.02 0.02 0.04 0.07 0.03 0.03 0.03 0.02 0.01 0.01 0.01 0.01 0.01 0.02 0.03 0.04 0.02 0.02 0.02 0.01 0.01 0.01 0.02 0.03 0.03 0.03 0.04 0.04 0.04 0.03 0.03 0.03 0.02 0.01 0.02 0.03
0.03 0.02 0.02 0.03 0.05 0.04 0.02 0.02 0.01 0.01 0.02 0.04 0.04 0.04 0.04 0.02 0.01 0.01 0.01 0.01 0.01 0.01 0.02 0.03 0.02 0.02 0.02 0.01 0.01 0.02 0.03 0.04 0.05 0.06 0.07 0.05 0.04 0.04 0.04 0.02 0.01 0.01 0.02 0.03
0.03 0.02 0.02 0.02 0.03 0.03 0.01 0.01 0.01 0.01 0.02 0.02 0.03 0.04 0.04 0.03 0.02 0.02 0.02 0.02 0.02 0.03 0.03 0.03 0.03 0.03 0.03 0.03 0.03 0.03 0.04 0.06 0.07 0.07 0.06 0.05 0.05 0.04 0.02 0.01 0.01 0.02 0.02 0.03
0.02 0.01 0.01 0.01 0.02 0.01 0.00 0.00 0.01 0.01 0.01 0.01 0.02 0.03 0.04 0.04 0.03 0.02 0.02 0.02 0.02 0.03 0.04 0.05 0.06 0.05 0.03 0.03 0.02 0.03 0.04 0.04 0.04 0.04 0.04 0.05 0.04 0.03 0.02 0.02 0.02 0.03 0.03 0.04
0.03 0.01 0.01 0.01 0.01 0.01 0.01 0.01 0.01 0.01 0.01 0.02 0.02 0.04 0.04 0.04 0.03 0.03 0.02 0.02 0.03 0.03 0.04 0.06 0.06 0.05 0.03 0.02 0.03 0.03 0.03 0.03 0.03 0.04 0.03 0.03 0.03 0.03 0.03 0.03 0.03 0.03 0.03 0.03
0.04 0.03 0.02 0.02 0.02 0.02 0.02 0.02 0.02 0.02 0.02 0.02 0.03 0.03 0.03 0.03 0.03 0.03 0.03 0.03 0.03 0.04 0.05 0.06 0.07 0.05 0.04 0.03 0.03 0.03 0.03 0.03 0.04 0.03 0.02 0.02 0.02 0.03 0.03 0.03 0.03 0.02 0.02 0.02
0.04 0.04 0.03 0.04 0.04 0.04 0.03 0.03 0.03 0.02 0.03 0.03 0.03 0.02 0.02 0.02 0.02 0.03 0.03 0.03 0.03 0.04 0.04 0.05 0.05 0.05 0.04 0.04 0.03 0.04 0.04 0.03 0.02 0.02 0.02 0.03 0.04 0.04 0.04 0.04 0.05 0.04 0.03 0.03
0.03 0.02 0.02 0.03 0.03 0.04 0.05 0.06 0.05 0.05 0.04 0.04 0.04 0.03 0.03 0.02 0.02 0.02 0.02 0.02 0.03 0.03 0.03 0.04 0.04 0.04 0.04 0.04 0.04 0.03 0.03 0.03 0.02 0.02 0.02 0.03 0.04 0.04 0.03 0.02 0.03 0.03 0.04 0.03
MSLP
1014.41 1014.87 1015.44 1016.08 1016.71 1017.26 1017.67 1017.88 1017.86 1017.61 1017.14 1016.52 1015.77 1014.96 1014.14 1013.33 1012.54 1011.76 1010.99 1010.19 1009.36 1008.49 1007.61 1006.74 1005.94 1005.27 1004.77 1004.48 1004.44 1004.62 1005.00 1005.55 1006.19 1006.89 1007.58 1008.22 1008.81 1009.34 1009.82 1010.28 1010.73 1011.20 1011.71 1012.25
1015.70 1016.28 1016.96 1017.67 1018.34 1018.90 1019.28 1019.44 1019.35 1019.04 1018.52 1017.85 1017.08 1016.27 1015.47 1014.68 1013.93 1013.18 1012.41 1011.61 1010.75 1009.82 1008.86 1007.89 1006.97 1006.15 1005.50 1005.07 1004.86 1004.89 1005.13 1005.54 1006.07 1006.66 1007.26 1007.83 1008.37 1008.85 1009.30 1009.73 1010.17 1010.63 1011.13 1011.66
1017.14 1017.81 1018.54 1019.29 1019.97 1020.52 1020.86 1020.97 1020.83 1020.45 1019.88 1019.15 1018.34 1017.51 1016.68 1015.90 1015.14 1014.40 1013.65 1012.85 1011.98 1011.04 1010.05 1009.03 1008.04 1007.14 1006.37 1005.80 1005.43 1005.29 1005.34 1005.57 1005.92 1006.34 1006.80 1007.25 1007.70 1008.12 1008.53 1008.95 1009.39 1009.86 1010.38 1010.93
1018.73 1019.40 1020.13 1020.85 1021.51 1022.01 1022.32 1022.38 1022.18 1021.75 1021.13 1020.35 1019.50 1018.63 1017.78 1016.97 1016.20 1015.45 1014.70 1013.92 1013.07 1012.15 1011.16 1010.14 1009.12 1008.16 1007.30 1006.60 1006.07 1005.74 1005.58 1005.58 1005.70 1005.91 1006.18 1006.48 1006.80 1007.15 1007.52 1007.93 1008.39 1008.90 1009.47 1010.07
1020.40 1021.00 1021.65 1022.29 1022.87 1023.30 1023.54 1023.55 1023.32 1022.85 1022.19 1021.40 1020.52 1019.62 1018.74 1017.91 1017.13 1016.37 1015.63 1014.86 1014.04 1013.14 1012.19 1011.18 1010.16 1009.16 1008.24 1007.42 1006.74 1006.20 1005.82 1005.57 1005.45 1005.42 1005.48 1005.60 1005.79 1006.05 1006.38 1006.78 1007.27 1007.84 1008.47 1009.15
1022.06 1022.52 1023.03 1023.54 1023.99 1024.32 1024.49 1024.44 1024.17 1023.70 1023.03 1022.24 1021.37 1020.47 1019.58 1018.74 1017.95 1017.19 1016.45 1015.69 1014.90 1014.04 1013.12 1012.14 1011.13 1010.12 1009.14 1008.22 1007.40 1006.68 1006.09 1005.61 1005.24 1004.98 1004.82 1004.77 1004.82 1004.98 1005.27 1005.67 1006.20 1006.82 1007.53 1008.30
1023.60 1023.89 1024.22 1024.55 1024.85 1025.06 1025.13 1025.04 1024.75 1024.28 1023.64 1022.88 1022.04 1021.17 1020.30 1019.47 1018.68 1017.93 1017.19 1016.45 1015.67 1014.85 1013.96 1013.01 1012.02 1011.01 1009.99 1009.01 1008.08 1007.22 1006.44 1005.77 1005.19 1004.72 1004.38 1004.16 1004.09 1004.17 1004.41 1004.81 1005.36 1006.03 1006.81 1007.64
1024.93 1025.02 1025.15 1025.30 1025.43 1025.51 1025.50 1025.35 1025.06 1024.61 1024.02 1023.32 1022.54 1021.73 1020.91 1020.11 1019.34 1018.59 1017.86 1017.13 1016.37 1015.57 1014.71 1013.80 1012.84 1011.84 1010.82 1009.80 1008.81 1007.86 1006.96 1006.14 1005.42 1004.80 1004.30 1003.96 1003.79 1003.80 1003.99 1004.37 1004.93 1005.63 1006.45 1007.33
1025.93 1025.85 1025.79 1025.77 1025.75 1025.72 1025.62 1025.44 1025.16 1024.75 1024.22 1023.60 1022.90 1022.16 1021.40 1020.64 1019.91 1019.18 1018.47 1017.75 1017.00 1016.22 1015.40 1014.52 1013.59 1012.63 1011.63 1010.63 1009.62 1008.64 1007.70 1006.81 1006.00 1005.29 1004.71 1004.29 1004.05 1003.99 1004.15 1004.50 1005.04 1005.74 1006.56 1007.45
1026.55 1026.33 1026.13 1025.97 1025.83 1025.71 1025.56 1025.36 1025.09 1024.72 1024.27 1023.73 1023.12 1022.46 1021.78 1021.08 1020.39 1019.69 1019.00 1018.29 1017.56 1016.81 1016.01 1015.17 1014.30 1013.39 1012.45 1011.49 1010.53 1009.58 1008.65 1007.77 1006.96 1006.23 1005.63 1005.17 1004.89 1004.80 1004.91 1005.23 1005.73 1006.40 1007.18 1008.04
1026.76 1026.44 1026.16 1025.91 1025.71 1025.53 1025.35 1025.15 1024.90 1024.59 1024.21 1023.75 1023.23 1022.65 1022.04 1021.41 1020.76 1020.10 1019.43 1018.75 1018.04 1017.31 1016.56 1015.77 1014.95 1014.11 1013.26 1012.39 1011.51 1010.65 1009.80 1008.99 1008.23 1007.55 1006.97 1006.53 1006.25 1006.14 1006.22 1006.50 1006.95 1007.55 1008.27 1009.06
1026.57 1026.23 1025.91 1025.64 1025.41 1025.23 1025.05 1024.87 1024.65 1024.39 1024.06 1023.68 1023.23 1022.73 1022.19 1021.62 1021.02 1020.40 1019.76 1019.11 1018.43 1017.74 1017.03 1016.29 1015.55 1014.79 1014.03 1013.27 1012.51 1011.76 1011.04 1010.34 1009.69 1009.10 1008.60 1008.21 1007.96 1007.85 1007.92 1008.15 1008.54 1009.07 1009.70 1010.40
1026.06 1025.74 1025.45 1025.21 1025.01 1024.84 1024.69 1024.54 1024.36 1024.14 1023.87 1023.54 1023.16 1022.72 1022.24 1021.72 1021.17 1020.60 1020.00 1019.38 1018.74 1018.08 1017.42 1016.74 1016.07 1015.39 1014.73 1014.08 1013.45 1012.84 1012.25 1011.69 1011.17 1010.70 1010.30 1009.99 1009.80 1009.72 1009.78 1009.99 1010.32 1010.77 1011.32 1011.92
1025.32 1025.07 1024.85 1024.68 1024.54 1024.43 1024.33 1024.21 1024.07 1023.89 1023.66 1023.37 1023.03 1022.64 1022.21 1021.74 1021.24 1020.71 1020.15 1019.57 1018.97 1018.35 1017.73 1017.11 1016.50 1015.90 1015.32 1014.78 1014.26 1013.77 1013.32 1012.90 1012.51 1012.18 1011.90 1011.69 1011.56 1011.54 1011.61 1011.80 1012.10 1012.48 1012.95 1013.45
1024.49 1024.33 1024.21 1024.13 1024.07 1024.03 1023.99 1023.92 1023.82 1023.67 1023.46 1023.21 1022.90 1022.54 1022.15 1021.72 1021.25 1020.76 1020.24 1019.70 1019.14 1018.56 1017.98 1017.40 1016.84 1016.30 1015.79 1015.32 1014.90 1014.52 1014.18 1013.88 1013.63 1013.41 1013.25 1013.15 1013.11 1013.14 1013.25 1013.44 1013.72 1014.06 1014.46 1014.89
1023.67 1023.62 1023.61 1023.63 1023.67 1023.70 1023.72 1023.70 1023.63 1023.50 1023.32 1023.08 1022.80 1022.46 1022.09 1021.69 1021.26 1020.80 1020.32 1019.81 1019.28 1018.73 1018.18 1017.63 1017.10 1016.60 1016.14 1015.72 1015.36 1015.06 1014.81 1014.61 1014.46 1014.36 1014.31 1014.30 1014.35 1014.45 1014.61 1014.82 1015.10 1015.41 1015.77 1016.15
1022.96 1023.01 1023.11 1023.24 1023.37 1023.48 1023.55 1023.58 1023.54 1023.44 1023.27 1023.04 1022.77 1022.45 1022.09 1021.71 1021.30 1020.87 1020.41 1019.93 1019.42 1018.90 1018.37 1017.84 1017.32 1016.84 1016.40 1016.02 1015.69 1015.44 1015.25 1015.12 1015.06 1015.04 1015.08 1015.17 1015.30 1015.47 1015.68 1015.93 1016.22 1016.53 1016.86 1017.20
1022.41 1022.57 1022.77 1022.99 1023.20 1023.38 1023.51 1023.57 1023.56 1023.47 1023.32 1023.10 1022.83 1022.52 1022.17 1021.80 1021.41 1020.99 1020.55 1020.08 1019.59 1019.08 1018.57 1018.05 1017.54 1017.07 1016.63 1016.26 1015.96 1015.73 1015.58 1015.50 1015.49 1015.55 1015.67 1015.83 1016.03 1016.26 1016.53 1016.81 1017.12 1017.43 1017.75 1018.07
1022.06 1022.31 1022.59 1022.89 1023.17 1023.40 1023.57 1023.66 1023.68 1023.61 1023.46 1023.25 1022.98 1022.67 1022.33 1021.96 1021.57 1021.16 1020.73 1020.28 1019.80 1019.31 1018.80 1018.29 1017.79 1017.33 1016.90 1016.54 1016.25 1016.04 1015.91 1015.86 1015.89 1016.00 1016.16 1016.38 1016.64 1016.92 1017.22 1017.54 1017.86 1018.18 1018.49 1018.78
1021.88 1022.20 1022.56 1022.91 1023.24 1023.51 1023.71 1023.82 1023.85 1023.79 1023.66 1023.45 1023.18 1022.87 1022.53 1022.16 1021.78 1021.37 1020.95 1020.50 1020.04 1019.56 1019.07 1018.58 1018.10 1017.65 1017.25 1016.90 1016.63 1016.43 1016.32 1016.30 1016.36 1016.49 1016.69 1016.94 1017.23 1017.55 1017.87 1018.20 1018.53 1018.84 1019.13 1019.40
1021.84 1022.22 1022.62 1023.01 1023.36 1023.65 1023.87 1024.00 1024.04 1023.98 1023.85 1023.64 1023.38 1023.07 1022.73 1022.36 1021.97 1021.57 1021.16 1020.73 1020.28 1019.83 1019.37 1018.92 1018.47 1018.06 1017.69 1017.37 1017.13 1016.96 1016.87 1016.87 1016.95 1017.10 1017.32 1017.58 1017.88 1018.20 1018.53 1018.85 1019.17 1019.46 1019.72 1019.96
1021.88 1022.30 1022.72 1023.12 1023.48 1023.77 1023.99 1024.13 1024.17 1024.12 1023.99 1023.78 1023.52 1023.21 1022.87 1022.51 1022.12 1021.73 1021.33 1020.92 1020.51 1020.09 1019.68 1019.27 1018.89 1018.53 1018.21 1017.95 1017.75 1017.62 1017.56 1017.58 1017.67 1017.83 1018.05 1018.30 1018.59 1018.90 1019.21 1019.51 1019.79 1020.05 1020.28 1020.48
1021.96 1022.39 1022.81 1023.20 1023.55 1023.83 1024.04 1024.16 1024.20 1024.15 1024.02 1023.83 1023.57 1023.26 1022.92 1022.57 1022.19 1021.81 1021.43 1021.06 1020.68 1020.32 1019.97 1019.64 1019.32 1019.04 1018.80 1018.60 1018.46 1018.37 1018.35 1018.39 1018.49 1018.64 1018.84 1019.08 1019.34 1019.62 1019.89 1020.15 1020.39 1020.61 1020.79 1020.95
1022.03 1022.45 1022.85 1023.22 1023.54 1023.80 1023.98 1024.09 1024.12 1024.07 1023.94 1023.75 1023.50 1023.21 1022.88 1022.53 1022.18 1021.82 1021.47 1021.14 1020.82 1020.51 1020.23 1019.98 1019.75 1019.55 1019.39 1019.26 1019.18 1019.15 1019.16 1019.22 1019.32 1019.46 1019.64 1019.84 1020.07 1020.29 1020.52 1020.73 1020.92 1021.10 1021.24 1021.36
1022.04 1022.44 1022.81 1023.14 1023.43 1023.65 1023.82 1023.91 1023.93 1023.88 1023.76 1023.58 1023.34 1023.06 1022.76 1022.43 1022.10 1021.78 1021.47 1021.18 1020.91 1020.67 1020.46 1020.29 1020.14 1020.02 1019.94 1019.89 1019.86 1019.87 1019.91 1019.99 1020.08 1020.21 1020.35 1020.51 1020.69 1020.86 1021.03 1021.20 1021.34 1021.47 1021.58 1021.66
1021.97 1022.34 1022.67 1022.97 1023.21 1023.41 1023.55 1023.63 1023.65 1023.61 1023.50 1023.34 1023.13 1022.88 1022.60 1022.31 1022.01 1021.72 1021.45 1021.21 1020.99 1020.81 1020.67 1020.56 1020.48 1020.44 1020.42 1020.42 1020.44 1020.49 1020.54 1020.61 1020.70 1020.80 1020.90 1021.02 1021.14 1021.26 1021.38 1021.50 1021.60 1021.70 1021.78 1021.84
1021.79 1022.12 1022.42 1022.68 1022.90 1023.08 1023.21 1023.29 1023.32 1023.29 1023.21 1023.08 1022.91 1022.69 1022.45 1022.20 1021.94 1021.69 1021.46 1021.26 1021.09 1020.96 1020.86 1020.80 1020.78 1020.78 1020.80 1020.83 1020.88 1020.94 1020.99 1021.05 1021.11 1021.18 1021.24 1021.31 1021.39 1021.46 1021.54 1021.61 1021.69 1021.75 1021.81 1021.86
Thickness
5669 5677 5679 5680 5682 5681 5677 5675 5671 5679 5684 5693 5700 5703 5706 5708 5708 5708 5708 5710 5711 5711 5711 5710 5710 5709 5708 5706 5704 5702 5698 5695 5693 5692 5691 5689 5688 5686 5686 5685 5684 5683 5683 5682
5663 5671 5672 5672 5677 5679 5678 5678 5678 5681 5683 5695 5699 5699 5700 5701 5702 5702 5703 5704 5704 5705 5705 5704 5704 5703 5702 5701 5699 5697 5694 5691 5689 5687 5686 5685 5684 5682 5681 5680 5679 5678 5677 5676
5646 5659 5663 5656 5670 5673 5675 5678 5679 5676 5684 5691 5690 5692 5694 5696 5697 5698 5698 5698 5698 5698 5698 5698 5698 5699 5697 5695 5694 5692 5689 5687 5684 5682 5681 5679 5679 5677 5676 5674 5673 5672 5671 5670
5634 5644 5636 5656 5673 5676 5674 5676 5678 5681 5684 5685 5687 5689 5690 5691 5692 5692 5693 5692 5692 5691 5691 5692 5692 5692 5691 5689 5687 5685 5683 5681 5679 5677 5675 5674 5672 5671 5670 5668 5667 5665 5665 5664
5623 5626 5635 5653 5665 5666 5665 5666 5673 5675 5678 5679 5681 5681 5681 5685 5686 5688 5688 5688 5687 5686 5685 5685 5685 5684 5683 5680 5679 5678 5676 5674 5673 5672 5671 5669 5667 5665 5663 5662 5660 5659 5659 5658
5618 5623 5624 5645 5662 5668 5663 5655 5669 5670 5670 5671 5672 5666 5672 5680 5680 5680 5681 5681 5680 5680 5679 5678 5677 5676 5674 5672 5671 5670 5669 5668 5667 5666 5665 5663 5661 5660 5657 5655 5654 5653 5652 5652
5614 5615 5624 5645 5655 5660 5643 5650 5664 5665 5665 5665 5666 5669 5673 5675 5674 5674 5673 5673 5673 5672 5671 5670 5669 5668 5667 5665 5665 5665 5664 5663 5661 5659 5657 5656 5655 5653 5651 5648 5647 5646 5645 5645
5606 5607 5618 5643 5646 5644 5647 5656 5659 5660 5661 5661 5662 5663 5665 5666 5666 5666 5665 5665 5664 5662 5662 5662 5661 5660 5658 5657 5658 5657 5656 5655 5653 5651 5650 5648 5646 5645 5643 5641 5640 5638 5638 5638
5608 5614 5628 5634 5638 5644 5646 5648 5652 5654 5657 5657 5656 5656 5657 5657 5657 5657 5656 5656 5655 5654 5653 5653 5653 5652 5650 5650 5650 5649 5648 5647 5646 5644 5642 5640 5638 5637 5635 5634 5633 5632 5631 5631
5606 5616 5623 5628 5633 5638 5641 5644 5648 5650 5651 5651 5650 5649 5648 5648 5647 5647 5647 5646 5646 5645 5644 5644 5644 5645 5644 5644 5643 5642 5640 5638 5637 5636 5634 5632 5630 5630 5628 5626 5625 5624 5624 5623
5601 5610 5617 5624 5627 5631 5635 5638 5640 5642 5642 5642 5642 5641 5640 5639 5639 5639 5638 5637 5637 5636 5636 5636 5636 5636 5636 5635 5634 5633 5631 5630 5628 5627 5625 5624 5622 5621 5620 5620 5618 5617 5617 5617
5595 5604 5605 5612 5620 5624 5626 5629 5632 5633 5633 5634 5634 5633 5632 5631 5631 5630 5629 5629 5628 5627 5627 5628 5628 5627 5628 5628 5626 5624 5623 5622 5620 5619 5617 5616 5614 5612 5612 5611 5610 5610 5609 5609
5598 5603 5604 5609 5614 5618 5619 5622 5625 5626 5625 5625 5626 5625 5624 5622 5622 5622 5621 5621 5620 5620 5620 5619 5620 5619 5620 5620 5619 5617 5615 5614 5612 5611 5609 5607 5606 5604 5603 5602 5602 5601 5601 5601
5597 5599 5601 5604 5606 5610 5613 5616 5618 5618 5618 5618 5618 5617 5615 5614 5613 5613 5613 5613 5612 5612 5611 5611 5611 5611 5612 5612 5610 5609 5608 5607 5606 5604 5602 5600 5599 5597 5596 5596 5595 5594 5593 5593
5594 5596 5597 5599 5601 5603 5606 5607 5608 5608 5608 5609 5609 5609 5608 5606 5605 5605 5605 5605 5604 5603 5603 5603 5603 5603 5603 5603 5602 5601 5600 5599 5598 5596 5595 5593 5591 5590 5589 5588 5587 5586 5586 5586
5589 5591 5592 5593 5594 5596 5598 5598 5598 5599 5600 5600 5600 5600 5600 5599 5598 5597 5597 5597 5595 5595 5595 5595 5595 5596 5596 5596 5595 5594 5593 5593 5591 5589 5588 5586 5585 5583 5582 5581 5580 5580 5580 5580
5581 5583 5584 5585 5587 5589 5590 5591 5592 5592 5592 5592 5593 5593 5592 5591 5590 5589 5589 5589 5589 5588 5588 5588 5588 5590 5590 5589 5589 5588 5587 5585 5584 5583 5581 5580 5578 5577 5576 5575 5575 5575 5575 5575
5579 5581 5581 5582 5583 5584 5584 5585 5585 5585 5585 5585 5585 5584 5583 5583 5582 5581 5581 5581 5581 5582 5582 5582 5582 5583 5583 5583 5582 5582 5580 5579 5577 5576 5574 5573 5572 5571 5570 5569 5569 5569 5569 5568
5575 5577 5578 5579 5579 5578 5578 5577 5577 5578 5578 5578 5577 5576 5575 5575 5575 5575 5574 5574 5574 5574 5575 5576 5575 5576 5576 5576 5576 5574 5573 5572 5570 5569 5568 5566 5565 5565 5564 5563 5563 5562 5562 5561
5572 5573 5574 5575 5575 5573 5573 5572 5571 5570 5571 5570 5569 5569 5568 5568 5568 5568 5568 5568 5569 5569 5570 5570 5570 5569 5570 5570 5569 5568 5567 5566 5565 5563 5562 5560 5559 5559 5558 5557 5557 5556 5556 5554
5567 5567 5568 5568 5568 5568 5567 5566 5565 5564 5564 5564 5563 5563 5562 5562 5562 5561 5561 5562 5563 5564 5564 5564 5564 5564 5564 5563 5562 5561 5561 5560 5559 5557 5556 5555 5554 5553 5552 5551 5551 5550 5549 5548
5561 5561 5562 5562 5562 5561 5560 5559 5558 5558 5557 5557 5557 5557 5556 5556 5556 5556 5556 5557 5558 5558 5558 5558 5558 5558 5557 5555 5555 5554 5554 5553 5552 5551 5550 5549 5548 5547 5546 5545 5544 5543 5541 5540
5555 5555 5555 5555 5555 5554 5554 5553 5552 5552 5551 5551 5551 5551 5550 5549 5549 5549 5550 5552 5553 5552 5552 5552 5551 5550 5549 5549 5548 5548 5547 5546 5546 5545 5544 5543 5542 5541 5540 5539 5537 5536 5534 5533
5549 5549 5549 5549 5548 5547 5546 5546 5545 5545 5545 5545 5545 5545 5544 5544 5544 5545 5546 5546 5546 5546 5546 5545 5544 5543 5542 5541 5541 5541 5540 5539 5538 5538 5537 5536 5535 5534 5533 5532 5530 5529 5527 5525
5545 5544 5544 5543 5542 5541 5540 5540 5539 5539 5539 5539 5540 5540 5539 5539 5539 5540 5540 5540 5540 5539 5539 5537 5537 5536 5536 5535 5534 5534 5533 5532 5531 5531 5531 5530 5529 5528 5526 5525 5523 5522 5520 5518
5540 5539 5539 5538 5538 5537 5536 5535 5534 5533 5533 5534 5533 5534 5534 5534 5534 5534 5534 5534 5534 5533 5532 5531 5530 5529 5529 5528 5527 5527 5526 5525 5524 5524 5523 5523 5522 5521 5519 5518 5517 5515 5513 5511
5535 5535 5534 5534 5534 5533 5532 5531 5529 5529 5529 5529 5529 5528 5528 5528 5528 5528 5527 5527 5526 5525 5525 5524 5523 5522 5521 5520 5519 5518 5518 5517 5517 5516 5516 5515 5514 5513 5512 5511 5510 5508 5506 5504